Weather History for Eau Claire, WI

Change the Weather History Date:

Tuesday, September 4, 2012

  Actual Average Record
Temperature  
Mean Temperature 77 °F 65 °F  
Max Temperature 91 °F 76 °F 96 °F (1925)
Min Temperature 62 °F 54 °F 33 °F (1974)
Degree Days  
Heating Degree Days 0 3  
Month to date heating degree days 0 10  
Since 1 July heating degree days 25 49  
Cooling Degree Days 12 3  
Month to date cooling degree days 35 12  
Year to date cooling degree days 808 539  
Growing Degree Days 26 (Base 50)    
Moisture  
Dew Point 64 °F    
Average Humidity 71    
Maximum Humidity 100    
Minimum Humidity 41    
Precipitation  
Precipitation T in 0.12 in 0.97 in (1989)
Month to date precipitation 0.23 0.49  
Year to date precipitation 19.39 22.61  
Snow  
Snow 0.00 in 0.00 in 0.00 in ()
Month to date snowfall 0.0 0.0  
Since 1 July snowfall 0.0 0.0  
Since 1 September snowfall 0.0 0.0  
Snow Depth 0.00 in    
Sea Level Pressure  
Sea Level Pressure 29.84 in    
Wind  
Wind Speed 5 mph (SSE)    
Max Wind Speed 24 mph    
Max Gust Speed 31 mph    
Visibility 6 miles    
Events Fog , Thunderstorm    
T = Trace of Precipitation, MM = Missing Value Source: NWS Daily Summary

Daily Weather History Graph

Daily Weather History Graph

Search for Another Location

Airport:

Trip Planner

Search our weather history database for the weather conditions in past years. The results will help you decide how hot, cold, wet, or windy it might be!

Date:

Astronomy

Sep. 04, 2012 Rise Set
Actual Time 6:32 AM CDT 7:36 PM CDT
Civil Twilight 6:02 AM CDT 8:06 PM CDT
Nautical Twilight 5:26 AM CDT 8:42 PM CDT
Astronomical Twilight 4:48 AM CDT 9:19 PM CDT
Moon 9:14 PM CDT (9/4) 10:53 AM CDT (9/4)
Length of Visible Light 14h 04m
Length of Day
13h 04m
Waning Gibbous, 83% of the Moon is Illuminated
Sep 4
Waning Gibbous
Sep 8
Last Quarter
Sep 15
New
Sep 22
First Quarter
Sep 29
Full

Hourly Weather History & Observations

Time (CDT) Temp. Heat Index Dew Point Humidity Pressure Visibility Wind Dir Wind Speed Gust Speed Precip Events Conditions
12:56 AM 68.0 °F - 66.0 °F 93% 29.87 in 9.0 mi Calm Calm - N/A   Clear
1:09 AM 66.2 °F - 64.4 °F 94% 29.90 in 2.0 mi Calm Calm - N/A   Clear
1:18 AM 66.2 °F - 66.2 °F 100% 29.89 in 7.0 mi Calm Calm - N/A   Clear
1:28 AM 64.4 °F - 64.4 °F 100% 29.89 in 1.8 mi Calm Calm - N/A   Clear
1:37 AM 64.4 °F - 64.4 °F 100% 29.89 in 0.8 mi Calm Calm - N/A   Mist
1:41 AM 64.4 °F - 64.4 °F 100% 29.90 in 1.2 mi Calm Calm - N/A   Partly Cloudy
1:54 AM 66.2 °F - 64.4 °F 94% 29.89 in 3.0 mi Calm Calm - N/A   Partly Cloudy
1:56 AM 66.0 °F - 64.9 °F 96% 29.88 in 5.0 mi Calm Calm - N/A   Partly Cloudy
2:12 AM 66.2 °F - 64.4 °F 94% 29.89 in 2.0 mi Calm Calm - N/A   Clear
2:20 AM 64.4 °F - 64.4 °F 100% 29.89 in 3.0 mi Calm Calm - N/A   Partly Cloudy
2:47 AM 64.4 °F - 64.4 °F 100% 29.89 in 1.2 mi Calm Calm - N/A   Scattered Clouds
2:49 AM 64.4 °F - 64.4 °F 100% 29.89 in 0.8 mi Calm Calm - N/A   Mist
2:56 AM 64.9 °F - 64.0 °F 97% 29.87 in 0.5 mi Calm Calm - N/A Fog Fog
3:47 AM 62.6 °F - 62.6 °F 100% 29.87 in 0.2 mi Calm Calm - N/A Fog Fog
3:56 AM 63.0 °F - 63.0 °F 100% 29.86 in 0.5 mi Calm Calm - N/A Fog Fog
4:38 AM 62.6 °F - 62.6 °F 100% 29.87 in 1.0 mi Calm Calm - N/A   Mist
4:47 AM 62.6 °F - 62.6 °F 100% 29.87 in 0.5 mi Calm Calm - N/A Fog Fog
4:56 AM 63.0 °F - 63.0 °F 100% 29.85 in 0.5 mi Calm Calm - N/A Fog Fog
5:08 AM 62.6 °F - 62.6 °F 100% 29.87 in 1.2 mi Calm Calm - N/A   Scattered Clouds
5:26 AM 62.6 °F - 62.6 °F 100% 29.86 in 0.8 mi Calm Calm - N/A   Clear
5:33 AM 62.6 °F - 62.6 °F 100% 29.86 in 1.5 mi ESE 4.6 mph - N/A   Clear
5:36 AM 62.6 °F - 62.6 °F 100% 29.86 in 3.0 mi Calm Calm - N/A   Clear
5:56 AM 63.0 °F - 63.0 °F 100% 29.86 in 8.0 mi Calm Calm - N/A   Clear
6:56 AM 66.0 °F - 64.9 °F 96% 29.85 in 6.0 mi South 4.6 mph - N/A   Clear
7:26 AM 66.2 °F - 64.4 °F 94% 29.87 in 5.0 mi Calm Calm - N/A   Partly Cloudy
7:56 AM 66.9 °F - 64.9 °F 93% 29.86 in 5.0 mi Calm Calm - N/A   Clear
8:49 AM 69.8 °F - 66.2 °F 88% 29.88 in 5.0 mi Calm Calm - N/A   Scattered Clouds
8:56 AM 70.0 °F - 66.9 °F 90% 29.87 in 6.0 mi Calm Calm - N/A   Partly Cloudy
9:56 AM 77.0 °F - 68.0 °F 74% 29.86 in 10.0 mi ESE 3.5 mph - N/A   Clear
10:56 AM 81.0 °F 84.4 °F 70.0 °F 69% 29.85 in 10.0 mi South 6.9 mph - N/A   Partly Cloudy
11:56 AM 84.0 °F 87.8 °F 69.1 °F 61% 29.83 in 10.0 mi South 10.4 mph 18.4 mph N/A   Clear
12:56 PM 87.1 °F 89.9 °F 66.9 °F 51% 29.80 in 10.0 mi Variable 6.9 mph - N/A   Clear
1:56 PM 88.0 °F 90.3 °F 66.0 °F 48% 29.79 in 10.0 mi South 13.8 mph 18.4 mph N/A   Partly Cloudy
2:56 PM 89.1 °F 91.3 °F 66.0 °F 46% 29.77 in 10.0 mi South 8.1 mph - N/A   Partly Cloudy
3:56 PM 91.0 °F 93.0 °F 64.9 °F 42% 29.74 in 10.0 mi SSW 13.8 mph - N/A   Clear
4:40 PM 87.8 °F 89.4 °F 64.4 °F 46% 29.72 in 10.0 mi South 10.4 mph 19.6 mph N/A Thunderstorm Mostly Cloudy
4:56 PM 87.1 °F 89.2 °F 66.0 °F 49% 29.71 in 10.0 mi SW 8.1 mph 16.1 mph N/A Thunderstorm Mostly Cloudy
5:56 PM 81.0 °F 82.5 °F 64.0 °F 56% 29.75 in 10.0 mi SSE 13.8 mph 21.9 mph 0.00 in   Overcast
6:56 PM 73.9 °F - 61.0 °F 64% 29.77 in 10.0 mi ESE 8.1 mph - N/A   Clear
7:56 PM 71.1 °F - 61.0 °F 70% 29.77 in 10.0 mi SSE 4.6 mph - N/A   Clear
8:56 PM 68.0 °F - 62.1 °F 81% 29.77 in 10.0 mi Calm Calm - N/A   Clear
9:56 PM 64.4 °F - 60.8 °F 88% 29.77 in 10.0 mi East 3.5 mph - N/A   Clear
10:56 PM 66.9 °F - 61.0 °F 81% 29.77 in 10.0 mi Calm Calm - N/A   Clear
11:56 PM 63.0 °F - 61.0 °F 93% 29.77 in 10.0 mi ENE 4.6 mph - N/A   Clear